Location: Florida Caverns State Park
(30.8073°N, 85.2161°W)
Time: 22:05:52
(UTC-04:00)

Hubble Space Telescope - Visible Passes

Search period start: 18 October 2018 00:00
Search period end: 28 October 2018 00:00
Orbit: 537 x 541 km, 28.5° (Epoch: 17 October)

Date Brightness Start Highest point End Pass type
(mag) Time Alt. Az. Time Alt. Az. Time Alt. Az.
18 Oct 3.3 05:20:01 19° ESE 05:20:01 19° ESE 05:21:26 10° E visible
18 Oct 1.0 06:55:22 16° WSW 06:58:36 63° S 07:02:41 10° E visible
19 Oct 3.7 05:10:18 15° E 05:10:18 15° E 05:11:05 10° E visible
19 Oct 1.0 06:45:39 22° WSW 06:48:12 63° S 06:52:17 10° E visible
20 Oct 4.0 05:00:33 11° E 05:00:33 11° E 05:00:43 10° E visible
20 Oct 0.9 06:35:54 30° WSW 06:37:47 62° S 06:41:52 10° ESE visible
21 Oct 1.0 06:26:10 40° WSW 06:27:22 59° S 06:31:27 10° ESE visible
22 Oct 1.0 06:16:26 50° SW 06:16:58 55° S 06:21:00 10° ESE visible
23 Oct 1.2 06:06:43 49° S 06:06:43 49° S 06:10:32 10° ESE visible
24 Oct 1.8 05:57:01 37° SSE 05:57:01 37° SSE 06:00:02 10° ESE visible
25 Oct 2.5 05:47:22 25° SSE 05:47:22 25° SSE 05:49:30 10° SE visible
25 Oct 3.0 07:24:23 10° SW 07:26:25 13° SSW 07:28:26 10° S visible
26 Oct 3.2 05:37:44 17° SE 05:37:44 17° SE 05:38:54 10° SE visible
26 Oct 3.2 07:15:25 10° SW 07:15:54 10° SSW 07:16:24 10° SSW visible
27 Oct 3.7 05:28:09 10° SE 05:28:09 10° SE 05:28:14 10° SE visible
